PRIVATE WETTERSTATION BILLIGHEIM-ALLFELD                       ZURCK
Wetterdaten: Samstag, 16.04.2016
Datum Zeit Temp. A. Temp. A. min Temp. A. max Feuchte A. Luftdruck Regen Wind Richtung Richtung Sonnenschein ET Solar Taupunkt Windchill Windben Empfang
16.04.2016 00:00 10,8 C 10,8 C 10,9 C 81 % 1004,7 hPa 0,0 l/m 4,8 km/h (1 Bft) S-SO 157 0 min 0,025 mm 0 W/m 7,7 C 10,8 C 11,3 km/h (2 Bft) 97 %
16.04.2016 00:10 10,8 C 10,8 C 10,8 C 81 % 1004,7 hPa 0,0 l/m 4,8 km/h (1 Bft) S 180 0 min 0,000 mm 0 W/m 7,7 C 10,8 C 11,3 km/h (2 Bft) 98 %
16.04.2016 00:20 10,9 C 10,8 C 10,9 C 80 % 1004,7 hPa 0,0 l/m 4,8 km/h (1 Bft) S 180 0 min 0,000 mm 0 W/m 7,6 C 10,9 C 16,1 km/h (3 Bft) 97 %
16.04.2016 00:30 11,0 C 10,9 C 11,0 C 80 % 1004,8 hPa 0,0 l/m 6,4 km/h (2 Bft) S 180 0 min 0,000 mm 0 W/m 7,7 C 11,0 C 16,1 km/h (3 Bft) 98 %
16.04.2016 00:40 10,9 C 10,9 C 11,0 C 80 % 1004,6 hPa 0,0 l/m 6,4 km/h (2 Bft) S 180 0 min 0,000 mm 0 W/m 7,6 C 10,9 C 16,1 km/h (3 Bft) 97 %
16.04.2016 00:50 10,9 C 10,9 C 11,0 C 80 % 1004,5 hPa 0,0 l/m 4,8 km/h (1 Bft) S-SO 157 0 min 0,000 mm 0 W/m 7,6 C 10,9 C 14,5 km/h (3 Bft) 97 %
16.04.2016 01:00 10,9 C 10,9 C 10,9 C 80 % 1004,3 hPa 0,0 l/m 3,2 km/h (1 Bft) S 180 0 min 0,025 mm 0 W/m 7,6 C 10,9 C 12,9 km/h (3 Bft) 98 %
16.04.2016 01:10 10,9 C 10,9 C 10,9 C 80 % 1004,8 hPa 0,0 l/m 6,4 km/h (2 Bft) S 180 0 min 0,000 mm 0 W/m 7,6 C 10,9 C 16,1 km/h (3 Bft) 97 %
16.04.2016 01:20 10,8 C 10,8 C 10,9 C 80 % 1004,5 hPa 0,0 l/m 6,4 km/h (2 Bft) S 180 0 min 0,000 mm 0 W/m 7,5 C 10,8 C 16,1 km/h (3 Bft) 98 %
16.04.2016 01:30 10,9 C 10,8 C 10,9 C 79 % 1004,4 hPa 0,0 l/m 6,4 km/h (2 Bft) S 180 0 min 0,000 mm 0 W/m 7,4 C 10,9 C 19,3 km/h (3 Bft) 97 %
16.04.2016 01:40 10,9 C 10,9 C 10,9 C 80 % 1004,4 hPa 0,0 l/m 6,4 km/h (2 Bft) S 180 0 min 0,000 mm 0 W/m 7,6 C 10,9 C 19,3 km/h (3 Bft) 98 %
16.04.2016 01:50 10,9 C 10,9 C 10,9 C 80 % 1004,4 hPa 0,0 l/m 6,4 km/h (2 Bft) S 180 0 min 0,000 mm 0 W/m 7,6 C 10,9 C 17,7 km/h (3 Bft) 97 %
16.04.2016 02:00 10,9 C 10,9 C 10,9 C 80 % 1004,3 hPa 0,0 l/m 8,0 km/h (2 Bft) S 180 0 min 0,025 mm 0 W/m 7,6 C 9,8 C 19,3 km/h (3 Bft) 97 %
16.04.2016 02:10 10,8 C 10,8 C 10,9 C 81 % 1004,2 hPa 0,0 l/m 8,0 km/h (2 Bft) S 180 0 min 0,000 mm 0 W/m 7,7 C 9,7 C 20,9 km/h (4 Bft) 98 %
16.04.2016 02:20 10,7 C 10,7 C 10,8 C 82 % 1004,0 hPa 0,0 l/m 6,4 km/h (2 Bft) S 180 0 min 0,000 mm 0 W/m 7,8 C 10,7 C 14,5 km/h (3 Bft) 97 %
16.04.2016 02:30 10,7 C 10,7 C 10,7 C 82 % 1004,1 hPa 0,0 l/m 6,4 km/h (2 Bft) S 180 0 min 0,000 mm 0 W/m 7,8 C 10,7 C 17,7 km/h (3 Bft) 98 %
16.04.2016 02:40 10,6 C 10,6 C 10,7 C 84 % 1003,9 hPa 0,0 l/m 8,0 km/h (2 Bft) S-SO 157 0 min 0,000 mm 0 W/m 8,0 C 9,5 C 19,3 km/h (3 Bft) 97 %
16.04.2016 02:50 10,6 C 10,6 C 10,6 C 84 % 1003,9 hPa 0,0 l/m 8,0 km/h (2 Bft) S 180 0 min 0,000 mm 0 W/m 8,0 C 9,5 C 19,3 km/h (3 Bft) 98 %
16.04.2016 03:00 10,5 C 10,5 C 10,6 C 85 % 1003,8 hPa 0,0 l/m 8,0 km/h (2 Bft) S 180 0 min 0,025 mm 0 W/m 8,1 C 9,4 C 20,9 km/h (4 Bft) 97 %
16.04.2016 03:10 10,5 C 10,5 C 10,5 C 85 % 1003,7 hPa 0,0 l/m 9,7 km/h (2 Bft) S-SO 157 0 min 0,000 mm 0 W/m 8,1 C 8,3 C 24,1 km/h (4 Bft) 98 %
16.04.2016 03:20 10,4 C 10,4 C 10,5 C 86 % 1003,6 hPa 0,0 l/m 9,7 km/h (2 Bft) S 180 0 min 0,000 mm 0 W/m 8,2 C 8,2 C 20,9 km/h (4 Bft) 97 %
16.04.2016 03:30 10,4 C 10,4 C 10,4 C 86 % 1003,7 hPa 0,0 l/m 11,3 km/h (2 Bft) S 180 0 min 0,000 mm 0 W/m 8,2 C 7,3 C 22,5 km/h (4 Bft) 97 %
16.04.2016 03:40 10,3 C 10,3 C 10,4 C 87 % 1003,5 hPa 0,0 l/m 6,4 km/h (2 Bft) S 180 0 min 0,000 mm 0 W/m 8,2 C 10,3 C 19,3 km/h (3 Bft) 98 %
16.04.2016 03:50 10,3 C 10,3 C 10,3 C 87 % 1003,4 hPa 0,0 l/m 6,4 km/h (2 Bft) S 180 0 min 0,000 mm 0 W/m 8,2 C 10,3 C 17,7 km/h (3 Bft) 97 %
16.04.2016 04:00 10,2 C 10,2 C 10,3 C 87 % 1003,3 hPa 0,0 l/m 4,8 km/h (1 Bft) S 180 0 min 0,025 mm 0 W/m 8,1 C 10,2 C 16,1 km/h (3 Bft) 89 %
16.04.2016 04:10 10,1 C 10,1 C 10,2 C 88 % 1003,0 hPa 0,0 l/m 3,2 km/h (1 Bft) S-SO 157 0 min 0,000 mm 0 W/m 8,2 C 10,1 C 14,5 km/h (3 Bft) 97 %
16.04.2016 04:20 10,2 C 10,1 C 10,2 C 88 % 1002,9 hPa 0,0 l/m 4,8 km/h (1 Bft) S 180 0 min 0,000 mm 0 W/m 8,3 C 10,2 C 14,5 km/h (3 Bft) 98 %
16.04.2016 04:30 10,1 C 10,1 C 10,2 C 88 % 1003,0 hPa 0,0 l/m 3,2 km/h (1 Bft) S-SO 157 0 min 0,000 mm 0 W/m 8,2 C 10,1 C 11,3 km/h (2 Bft) 98 %
16.04.2016 04:40 10,1 C 10,1 C 10,1 C 89 % 1002,9 hPa 0,0 l/m 4,8 km/h (1 Bft) S-SO 157 0 min 0,000 mm 0 W/m 8,4 C 10,1 C 14,5 km/h (3 Bft) 97 %
16.04.2016 04:50 10,1 C 10,0 C 10,1 C 89 % 1002,7 hPa 0,0 l/m 3,2 km/h (1 Bft) S-SO 157 0 min 0,000 mm 0 W/m 8,4 C 10,1 C 12,9 km/h (3 Bft) 98 %
16.04.2016 05:00 10,0 C 10,0 C 10,1 C 89 % 1002,6 hPa 0,0 l/m 4,8 km/h (1 Bft) S-SO 157 0 min 0,000 mm 0 W/m 8,3 C 10,0 C 11,3 km/h (2 Bft) 97 %
16.04.2016 05:10 10,0 C 10,0 C 10,0 C 89 % 1002,7 hPa 0,0 l/m 3,2 km/h (1 Bft) S 180 0 min 0,000 mm 0 W/m 8,3 C 10,0 C 17,7 km/h (3 Bft) 98 %
16.04.2016 05:20 10,0 C 10,0 C 10,0 C 90 % 1002,5 hPa 0,0 l/m 3,2 km/h (1 Bft) S-SO 157 0 min 0,000 mm 0 W/m 8,4 C 10,0 C 14,5 km/h (3 Bft) 96 %
16.04.2016 05:30 10,0 C 10,0 C 10,1 C 90 % 1002,5 hPa 0,0 l/m 3,2 km/h (1 Bft) S-SW 202 0 min 0,000 mm 0 W/m 8,4 C 10,0 C 11,3 km/h (2 Bft) 97 %
16.04.2016 05:40 9,9 C 9,9 C 10,1 C 90 % 1002,4 hPa 0,4 l/m 1,6 km/h (1 Bft) S 180 0 min 0,000 mm 0 W/m 8,3 C 9,9 C 9,7 km/h (2 Bft) 98 %
16.04.2016 05:50 9,9 C 9,8 C 10,0 C 91 % 1002,3 hPa 0,4 l/m 6,4 km/h (2 Bft) S-SO 157 0 min 0,000 mm 0 W/m 8,5 C 9,9 C 17,7 km/h (3 Bft) 97 %
16.04.2016 06:00 9,8 C 9,8 C 9,9 C 90 % 1002,2 hPa 0,2 l/m 4,8 km/h (1 Bft) S-SO 157 0 min 0,000 mm 0 W/m 8,2 C 9,8 C 14,5 km/h (3 Bft) 98 %
16.04.2016 06:10 9,7 C 9,7 C 9,8 C 90 % 1001,9 hPa 0,2 l/m 1,6 km/h (1 Bft) S 180 0 min 0,000 mm 0 W/m 8,1 C 9,7 C 11,3 km/h (2 Bft) 97 %
16.04.2016 06:20 9,6 C 9,6 C 9,7 C 91 % 1001,9 hPa 0,0 l/m 1,6 km/h (1 Bft) S-SO 157 0 min 0,000 mm 0 W/m 8,2 C 9,6 C 11,3 km/h (2 Bft) 98 %
16.04.2016 06:30 9,6 C 9,6 C 9,6 C 91 % 1001,9 hPa 0,0 l/m 0,0 km/h (0 Bft) N 0 0 min 0,000 mm 0 W/m 8,2 C 9,6 C 0,0 km/h (0 Bft) 97 %
16.04.2016 06:40 9,6 C 9,6 C 9,6 C 91 % 1001,9 hPa 0,2 l/m 0,0 km/h (0 Bft) N 0 0 min 0,000 mm 0 W/m 8,2 C 9,6 C 0,0 km/h (0 Bft) 99 %
16.04.2016 06:50 9,6 C 9,6 C 9,6 C 91 % 1001,9 hPa 0,2 l/m 0,0 km/h (0 Bft) N 0 0 min 0,000 mm 0 W/m 8,2 C 9,6 C 0,0 km/h (0 Bft) 99 %
16.04.2016 07:00 9,6 C 9,6 C 9,6 C 91 % 1001,9 hPa 0,2 l/m 0,0 km/h (0 Bft) W-NW 292 0 min 0,000 mm 0 W/m 8,2 C 9,6 C 4,8 km/h (1 Bft) 99 %
16.04.2016 07:10 9,5 C 9,5 C 9,6 C 91 % 1002,1 hPa 0,2 l/m 4,8 km/h (1 Bft) W-NW 292 0 min 0,000 mm 0 W/m 8,1 C 9,5 C 11,3 km/h (2 Bft) 100 %
16.04.2016 07:20 9,3 C 9,3 C 9,5 C 91 % 1002,1 hPa 0,4 l/m 3,2 km/h (1 Bft) W-NW 292 0 min 0,000 mm 0 W/m 7,9 C 9,3 C 11,3 km/h (2 Bft) 99 %
16.04.2016 07:30 9,3 C 9,3 C 9,3 C 91 % 1002,2 hPa 0,4 l/m 0,0 km/h (0 Bft) W 270 0 min 0,000 mm 0 W/m 7,9 C 9,3 C 4,8 km/h (1 Bft) 100 %
16.04.2016 07:40 9,2 C 9,2 C 9,3 C 91 % 1002,2 hPa 0,4 l/m 1,6 km/h (1 Bft) W 270 0 min 0,000 mm 0 W/m 7,8 C 9,2 C 6,4 km/h (2 Bft) 99 %
16.04.2016 07:50 9,2 C 9,2 C 9,3 C 91 % 1002,2 hPa 0,0 l/m 0,0 km/h (0 Bft) N 0 0 min 0,000 mm 0 W/m 7,8 C 9,2 C 0,0 km/h (0 Bft) 99 %
16.04.2016 08:00 9,2 C 9,2 C 9,2 C 91 % 1002,3 hPa 0,2 l/m 0,0 km/h (0 Bft) W 270 0 min 0,000 mm 0 W/m 7,8 C 9,2 C 4,8 km/h (1 Bft) 100 %
16.04.2016 08:10 9,2 C 9,2 C 9,2 C 91 % 1002,3 hPa 0,2 l/m 1,6 km/h (1 Bft) W 270 0 min 0,000 mm 0 W/m 7,8 C 9,2 C 11,3 km/h (2 Bft) 100 %
16.04.2016 08:20 9,3 C 9,2 C 9,3 C 91 % 1002,3 hPa 0,2 l/m 6,4 km/h (2 Bft) W-NW 292 0 min 0,000 mm 0 W/m 7,9 C 9,3 C 16,1 km/h (3 Bft) 100 %
16.04.2016 08:30 9,2 C 9,2 C 9,3 C 91 % 1002,7 hPa 0,2 l/m 4,8 km/h (1 Bft) W-NW 292 0 min 0,000 mm 0 W/m 7,8 C 9,2 C 12,9 km/h (3 Bft) 100 %
16.04.2016 08:40 9,1 C 9,1 C 9,2 C 91 % 1003,0 hPa 0,0 l/m 4,8 km/h (1 Bft) W 270 0 min 0,000 mm 12 W/m 7,7 C 9,1 C 17,7 km/h (3 Bft) 100 %
16.04.2016 08:50 9,1 C 9,1 C 9,1 C 91 % 1003,0 hPa 0,2 l/m 3,2 km/h (1 Bft) W-SW 247 0 min 0,000 mm 30 W/m 7,7 C 9,1 C 11,3 km/h (2 Bft) 100 %
16.04.2016 09:00 9,2 C 9,1 C 9,2 C 91 % 1003,0 hPa 0,2 l/m 3,2 km/h (1 Bft) SW 225 0 min 0,000 mm 37 W/m 7,8 C 9,2 C 11,3 km/h (2 Bft) 100 %
16.04.2016 09:10 9,2 C 9,2 C 9,2 C 91 % 1003,1 hPa 0,0 l/m 1,6 km/h (1 Bft) SW 225 0 min 0,000 mm 56 W/m 7,8 C 9,2 C 11,3 km/h (2 Bft) 100 %
16.04.2016 09:20 9,3 C 9,2 C 9,3 C 91 % 1003,1 hPa 0,0 l/m 1,6 km/h (1 Bft) W-SW 247 0 min 0,000 mm 102 W/m 7,9 C 9,3 C 8,0 km/h (2 Bft) 100 %
16.04.2016 09:30 9,4 C 9,3 C 9,4 C 91 % 1003,3 hPa 0,2 l/m 1,6 km/h (1 Bft) W-SW 247 0 min 0,000 mm 100 W/m 8,0 C 9,4 C 8,0 km/h (2 Bft) 100 %
16.04.2016 09:40 9,4 C 9,4 C 9,4 C 91 % 1003,5 hPa 0,0 l/m 4,8 km/h (1 Bft) S-SW 202 0 min 0,000 mm 30 W/m 8,0 C 9,4 C 11,3 km/h (2 Bft) 100 %
16.04.2016 09:50 9,3 C 9,3 C 9,4 C 91 % 1003,7 hPa 0,2 l/m 4,8 km/h (1 Bft) S-SW 202 0 min 0,000 mm 74 W/m 7,9 C 9,3 C 14,5 km/h (3 Bft) 99 %
16.04.2016 10:00 9,4 C 9,3 C 9,4 C 91 % 1003,7 hPa 0,0 l/m 3,2 km/h (1 Bft) SW 225 0 min 0,025 mm 123 W/m 8,0 C 9,4 C 11,3 km/h (2 Bft) 100 %
16.04.2016 10:10 9,7 C 9,4 C 9,7 C 91 % 1003,7 hPa 0,0 l/m 0,0 km/h (0 Bft) S-SW 202 10 min 0,000 mm 202 W/m 8,3 C 9,7 C 8,0 km/h (2 Bft) 100 %
16.04.2016 10:20 9,8 C 9,6 C 9,8 C 91 % 1003,9 hPa 0,0 l/m 0,0 km/h (0 Bft) S-SW 202 0 min 0,000 mm 141 W/m 8,4 C 9,8 C 1,6 km/h (1 Bft) 99 %
16.04.2016 10:30 9,9 C 9,8 C 9,9 C 91 % 1003,9 hPa 0,0 l/m 3,2 km/h (1 Bft) SW 225 0 min 0,000 mm 120 W/m 8,5 C 9,9 C 8,0 km/h (2 Bft) 100 %
16.04.2016 10:40 9,8 C 9,8 C 9,9 C 91 % 1004,0 hPa 0,0 l/m 4,8 km/h (1 Bft) SW 225 0 min 0,000 mm 111 W/m 8,4 C 9,8 C 12,9 km/h (3 Bft) 100 %
16.04.2016 10:50 9,8 C 9,8 C 9,8 C 91 % 1004,0 hPa 0,0 l/m 6,4 km/h (2 Bft) S-SW 202 0 min 0,000 mm 105 W/m 8,4 C 9,8 C 11,3 km/h (2 Bft) 99 %
16.04.2016 11:00 9,8 C 9,8 C 9,8 C 91 % 1004,1 hPa 0,0 l/m 6,4 km/h (2 Bft) S-SW 202 10 min 0,051 mm 295 W/m 8,4 C 9,8 C 16,1 km/h (3 Bft) 100 %
16.04.2016 11:10 9,8 C 9,8 C 9,8 C 91 % 1004,3 hPa 0,2 l/m 6,4 km/h (2 Bft) SW 225 10 min 0,000 mm 229 W/m 8,4 C 9,8 C 16,1 km/h (3 Bft) 100 %
16.04.2016 11:20 9,9 C 9,8 C 9,9 C 91 % 1004,5 hPa 0,0 l/m 6,4 km/h (2 Bft) SW 225 0 min 0,000 mm 127 W/m 8,5 C 9,9 C 17,7 km/h (3 Bft) 100 %
16.04.2016 11:30 9,7 C 9,7 C 9,9 C 91 % 1004,5 hPa 0,2 l/m 8,0 km/h (2 Bft) W-SW 247 0 min 0,000 mm 105 W/m 8,3 C 8,5 C 20,9 km/h (4 Bft) 100 %
16.04.2016 11:40 9,6 C 9,6 C 9,7 C 91 % 1004,5 hPa 0,2 l/m 4,8 km/h (1 Bft) W 270 10 min 0,000 mm 225 W/m 8,2 C 9,6 C 17,7 km/h (3 Bft) 100 %
16.04.2016 11:50 9,6 C 9,6 C 9,7 C 91 % 1004,6 hPa 0,0 l/m 4,8 km/h (1 Bft) W-SW 247 10 min 0,000 mm 155 W/m 8,2 C 9,6 C 12,9 km/h (3 Bft) 100 %
16.04.2016 12:00 9,6 C 9,6 C 9,6 C 91 % 1004,5 hPa 0,0 l/m 3,2 km/h (1 Bft) SW 225 0 min 0,051 mm 74 W/m 8,2 C 9,6 C 12,9 km/h (3 Bft) 100 %
16.04.2016 12:10 9,3 C 9,3 C 9,6 C 91 % 1004,8 hPa 0,0 l/m 6,4 km/h (2 Bft) SW 225 0 min 0,000 mm 76 W/m 7,9 C 9,3 C 16,1 km/h (3 Bft) 100 %
16.04.2016 12:20 9,3 C 9,2 C 9,3 C 91 % 1004,9 hPa 0,2 l/m 3,2 km/h (1 Bft) SW 225 0 min 0,000 mm 98 W/m 7,9 C 9,3 C 11,3 km/h (2 Bft) 100 %
16.04.2016 12:30 9,0 C 9,0 C 9,3 C 91 % 1004,9 hPa 0,0 l/m 4,8 km/h (1 Bft) W 270 0 min 0,000 mm 53 W/m 7,6 C 9,0 C 19,3 km/h (3 Bft) 100 %
16.04.2016 12:40 8,8 C 8,8 C 9,0 C 91 % 1005,1 hPa 0,0 l/m 3,2 km/h (1 Bft) W-NW 292 0 min 0,000 mm 116 W/m 7,4 C 8,8 C 12,9 km/h (3 Bft) 100 %
16.04.2016 12:50 9,0 C 8,8 C 9,0 C 91 % 1005,0 hPa 0,4 l/m 0,0 km/h (0 Bft) W 270 10 min 0,000 mm 162 W/m 7,6 C 9,0 C 9,7 km/h (2 Bft) 100 %
16.04.2016 13:00 8,9 C 8,9 C 9,1 C 91 % 1005,4 hPa 0,0 l/m 4,8 km/h (1 Bft) W 270 0 min 0,051 mm 125 W/m 7,5 C 8,9 C 17,7 km/h (3 Bft) 100 %
16.04.2016 13:10 8,7 C 8,7 C 8,9 C 91 % 1005,6 hPa 0,4 l/m 6,4 km/h (2 Bft) W 270 0 min 0,000 mm 32 W/m 7,3 C 8,7 C 16,1 km/h (3 Bft) 100 %
16.04.2016 13:20 8,5 C 8,5 C 8,7 C 91 % 1005,9 hPa 0,8 l/m 6,4 km/h (2 Bft) W 270 0 min 0,000 mm 12 W/m 7,1 C 8,5 C 22,5 km/h (4 Bft) 100 %
16.04.2016 13:30 8,4 C 8,4 C 8,5 C 91 % 1005,9 hPa 1,2 l/m 4,8 km/h (1 Bft) W 270 0 min 0,000 mm 33 W/m 7,0 C 8,4 C 14,5 km/h (3 Bft) 100 %
16.04.2016 13:40 8,3 C 8,3 C 8,4 C 91 % 1005,9 hPa 0,4 l/m 4,8 km/h (1 Bft) W 270 0 min 0,000 mm 16 W/m 6,9 C 8,3 C 16,1 km/h (3 Bft) 100 %
16.04.2016 13:50 8,2 C 8,2 C 8,3 C 91 % 1005,7 hPa 0,6 l/m 1,6 km/h (1 Bft) W-SW 247 0 min 0,000 mm 60 W/m 6,8 C 8,2 C 8,0 km/h (2 Bft) 100 %
16.04.2016 14:00 8,5 C 8,2 C 8,5 C 91 % 1005,7 hPa 0,2 l/m 1,6 km/h (1 Bft) S-SW 202 10 min 0,025 mm 517 W/m 7,1 C 8,5 C 9,7 km/h (2 Bft) 100 %
16.04.2016 14:10 9,3 C 8,5 C 9,3 C 91 % 1005,7 hPa 0,0 l/m 3,2 km/h (1 Bft) W-SW 247 10 min 0,000 mm 710 W/m 7,9 C 9,3 C 11,3 km/h (2 Bft) 100 %
16.04.2016 14:20 9,7 C 9,3 C 9,7 C 91 % 1005,7 hPa 0,0 l/m 6,4 km/h (2 Bft) SW 225 10 min 0,000 mm 452 W/m 8,3 C 9,7 C 16,1 km/h (3 Bft) 100 %
16.04.2016 14:30 10,0 C 9,7 C 10,0 C 91 % 1005,7 hPa 0,0 l/m 6,4 km/h (2 Bft) S-SW 202 10 min 0,000 mm 529 W/m 8,6 C 10,0 C 22,5 km/h (4 Bft) 100 %
16.04.2016 14:40 9,9 C 9,9 C 9,9 C 91 % 1005,8 hPa 0,0 l/m 11,3 km/h (2 Bft) S-SW 202 10 min 0,000 mm 439 W/m 8,5 C 6,8 C 19,3 km/h (3 Bft) 100 %
16.04.2016 14:50 10,1 C 9,9 C 10,1 C 91 % 1005,6 hPa 0,0 l/m 11,3 km/h (2 Bft) SW 225 10 min 0,000 mm 408 W/m 8,7 C 7,0 C 22,5 km/h (4 Bft) 100 %
16.04.2016 15:00 10,1 C 10,1 C 10,2 C 90 % 1005,7 hPa 0,0 l/m 12,9 km/h (3 Bft) S-SW 202 10 min 0,178 mm 445 W/m 8,5 C 6,2 C 22,5 km/h (4 Bft) 100 %
16.04.2016 15:10 10,6 C 10,1 C 10,6 C 91 % 1005,6 hPa 0,0 l/m 9,7 km/h (2 Bft) S-SW 202 10 min 0,000 mm 431 W/m 9,2 C 8,4 C 19,3 km/h (3 Bft) 100 %
16.04.2016 15:20 10,7 C 10,6 C 10,7 C 90 % 1006,0 hPa 0,0 l/m 11,3 km/h (2 Bft) S-SW 202 10 min 0,000 mm 290 W/m 9,1 C 7,7 C 24,1 km/h (4 Bft) 100 %
16.04.2016 15:30 10,6 C 10,6 C 10,7 C 90 % 1005,9 hPa 0,0 l/m 12,9 km/h (3 Bft) S-SW 202 10 min 0,000 mm 357 W/m 9,0 C 6,8 C 24,1 km/h (4 Bft) 100 %
16.04.2016 15:40 10,6 C 10,6 C 10,7 C 89 % 1005,9 hPa 0,0 l/m 12,9 km/h (3 Bft) S-SW 202 10 min 0,000 mm 257 W/m 8,9 C 6,8 C 22,5 km/h (4 Bft) 100 %
16.04.2016 15:50 10,6 C 10,6 C 10,6 C 89 % 1005,7 hPa 0,0 l/m 9,7 km/h (2 Bft) S-SW 202 10 min 0,000 mm 290 W/m 8,9 C 8,4 C 24,1 km/h (4 Bft) 100 %
16.04.2016 16:00 10,8 C 10,6 C 10,8 C 89 % 1005,6 hPa 0,0 l/m 9,7 km/h (2 Bft) S 180 10 min 0,127 mm 285 W/m 9,1 C 8,6 C 20,9 km/h (4 Bft) 100 %
16.04.2016 16:10 10,8 C 10,8 C 10,9 C 88 % 1005,5 hPa 0,0 l/m 11,3 km/h (2 Bft) S-SW 202 10 min 0,000 mm 229 W/m 8,9 C 7,8 C 22,5 km/h (4 Bft) 100 %
16.04.2016 16:20 11,3 C 10,8 C 11,3 C 88 % 1005,5 hPa 0,0 l/m 8,0 km/h (2 Bft) S-SW 202 10 min 0,000 mm 292 W/m 9,4 C 10,2 C 24,1 km/h (4 Bft) 100 %
16.04.2016 16:30 11,7 C 11,3 C 11,7 C 87 % 1005,5 hPa 0,0 l/m 11,3 km/h (2 Bft) S-SW 202 10 min 0,000 mm 195 W/m 9,6 C 8,8 C 20,9 km/h (4 Bft) 100 %
16.04.2016 16:50 11,4 C 11,3 C 11,7 C 84 % 1005,5 hPa 0,0 l/m 11,2 km/h (2 Bft) W-SW 250 0 min 0,000 mm 135 W/m 8,8 C 8,5 C 22,5 km/h (4 Bft) 97 %
16.04.2016 17:00 11,6 C 11,4 C 11,6 C 85 % 1005,3 hPa 0,0 l/m 9,4 km/h (2 Bft) SW 224 10 min 0,000 mm 156 W/m 9,2 C 9,7 C 19,3 km/h (3 Bft) 97 %
16.04.2016 17:10 11,6 C 11,6 C 11,7 C 83 % 1005,4 hPa 0,0 l/m 15,8 km/h (3 Bft) SW 225 0 min 0,078 mm 127 W/m 8,8 C 6,8 C 27,4 km/h (4 Bft) 97 %
16.04.2016 17:20 11,7 C 11,6 C 11,7 C 82 % 1005,2 hPa 0,0 l/m 10,8 km/h (2 Bft) SW 224 10 min 0,000 mm 178 W/m 8,7 C 9,1 C 20,9 km/h (4 Bft) 98 %
16.04.2016 17:30 11,7 C 11,7 C 11,7 C 84 % 1005,2 hPa 0,0 l/m 6,3 km/h (2 Bft) S-SW 213 0 min 0,000 mm 62 W/m 9,1 C 11,7 C 16,1 km/h (3 Bft) 97 %
16.04.2016 17:40 11,7 C 11,7 C 11,7 C 84 % 1005,1 hPa 0,0 l/m 5,2 km/h (1 Bft) S-SW 202 0 min 0,000 mm 30 W/m 9,1 C 11,7 C 16,1 km/h (3 Bft) 98 %
16.04.2016 17:50 11,6 C 11,6 C 11,7 C 83 % 1005,2 hPa 0,0 l/m 10,0 km/h (2 Bft) SW 229 0 min 0,000 mm 23 W/m 8,8 C 9,4 C 19,3 km/h (3 Bft) 97 %
16.04.2016 18:00 11,6 C 11,6 C 11,7 C 84 % 1005,1 hPa 0,0 l/m 6,5 km/h (2 Bft) SW 217 0 min 0,051 mm 12 W/m 9,0 C 11,6 C 16,1 km/h (3 Bft) 97 %
16.04.2016 18:10 11,6 C 11,6 C 11,6 C 85 % 1005,2 hPa 0,0 l/m 3,6 km/h (1 Bft) S-SW 207 0 min 0,000 mm 7 W/m 9,2 C 11,6 C 11,3 km/h (2 Bft) 98 %
16.04.2016 18:20 11,5 C 11,5 C 11,6 C 84 % 1005,2 hPa 0,0 l/m 5,9 km/h (2 Bft) SW 229 0 min 0,000 mm 9 W/m 8,9 C 11,5 C 14,5 km/h (3 Bft) 99 %
16.04.2016 18:30 11,5 C 11,5 C 11,5 C 85 % 1005,1 hPa 0,0 l/m 4,0 km/h (1 Bft) S-SW 196 0 min 0,000 mm 51 W/m 9,1 C 11,5 C 12,9 km/h (3 Bft) 100 %
16.04.2016 18:40 11,6 C 11,5 C 11,6 C 85 % 1004,9 hPa 0,0 l/m 0,4 km/h (0 Bft) S 187 0 min 0,000 mm 53 W/m 9,2 C 11,6 C 8,0 km/h (2 Bft) 100 %
16.04.2016 18:50 11,6 C 11,6 C 11,6 C 86 % 1004,8 hPa 0,0 l/m 2,2 km/h (1 Bft) S 188 0 min 0,000 mm 37 W/m 9,3 C 11,6 C 9,7 km/h (2 Bft) 100 %
16.04.2016 19:00 11,5 C 11,5 C 11,6 C 87 % 1004,7 hPa 0,0 l/m 0,1 km/h (0 Bft) S 180 0 min 0,025 mm 25 W/m 9,4 C 11,5 C 6,4 km/h (2 Bft) 100 %
16.04.2016 19:10 11,3 C 11,3 C 11,5 C 87 % 1004,7 hPa 0,0 l/m 3,3 km/h (1 Bft) S 181 0 min 0,000 mm 9 W/m 9,2 C 11,3 C 11,3 km/h (2 Bft) 100 %
16.04.2016 19:20 11,2 C 11,2 C 11,3 C 87 % 1004,8 hPa 0,0 l/m 2,1 km/h (1 Bft) S-SW 198 0 min 0,000 mm 0 W/m 9,1 C 11,2 C 11,3 km/h (2 Bft) 100 %
16.04.2016 19:30 11,1 C 11,1 C 11,2 C 88 % 1004,6 hPa 0,0 l/m 0,7 km/h (0 Bft) S 183 0 min 0,000 mm 0 W/m 9,2 C 11,1 C 9,7 km/h (2 Bft) 100 %
16.04.2016 19:40 11,0 C 11,0 C 11,1 C 88 % 1004,5 hPa 0,0 l/m 0,0 km/h (0 Bft) S-SO 162 0 min 0,000 mm 0 W/m 9,1 C 11,0 C 0,0 km/h (0 Bft) 100 %
16.04.2016 19:50 10,9 C 10,9 C 11,0 C 88 % 1004,6 hPa 0,0 l/m 1,5 km/h (1 Bft) S-SO 165 0 min 0,000 mm 0 W/m 9,0 C 10,9 C 8,0 km/h (2 Bft) 100 %
16.04.2016 20:00 10,8 C 10,8 C 10,9 C 89 % 1004,7 hPa 0,0 l/m 0,7 km/h (0 Bft) S-SO 168 0 min 0,000 mm 0 W/m 9,1 C 10,8 C 6,4 km/h (2 Bft) 100 %
16.04.2016 20:10 10,7 C 10,7 C 10,8 C 89 % 1004,8 hPa 0,0 l/m 2,3 km/h (1 Bft) S-SO 165 0 min 0,000 mm 0 W/m 9,0 C 10,7 C 9,7 km/h (2 Bft) 99 %
16.04.2016 20:20 10,6 C 10,6 C 10,7 C 89 % 1004,8 hPa 0,0 l/m 2,5 km/h (1 Bft) S-SO 164 0 min 0,000 mm 0 W/m 8,9 C 10,6 C 9,7 km/h (2 Bft) 100 %
16.04.2016 20:30 10,6 C 10,5 C 10,6 C 90 % 1004,7 hPa 0,0 l/m 1,6 km/h (1 Bft) SO 143 0 min 0,000 mm 0 W/m 9,0 C 10,6 C 9,7 km/h (2 Bft) 100 %
16.04.2016 20:40 10,5 C 10,5 C 10,6 C 90 % 1004,6 hPa 0,0 l/m 0,3 km/h (0 Bft) S-SO 147 0 min 0,000 mm 0 W/m 8,9 C 10,5 C 6,4 km/h (2 Bft) 100 %
16.04.2016 20:50 10,4 C 10,4 C 10,5 C 90 % 1004,4 hPa 0,0 l/m 0,0 km/h (0 Bft) S-SO 147 0 min 0,000 mm 0 W/m 8,8 C 10,4 C 0,0 km/h (0 Bft) 100 %
16.04.2016 21:00 10,4 C 10,4 C 10,4 C 90 % 1004,4 hPa 0,0 l/m 0,0 km/h (0 Bft) S-SO 147 0 min 0,000 mm 0 W/m 8,8 C 10,4 C 0,0 km/h (0 Bft) 100 %
16.04.2016 21:10 10,3 C 10,3 C 10,4 C 90 % 1004,2 hPa 0,0 l/m 0,0 km/h (0 Bft) S-SO 147 0 min 0,000 mm 0 W/m 8,7 C 10,3 C 0,0 km/h (0 Bft) 100 %
16.04.2016 21:20 10,2 C 10,2 C 10,3 C 90 % 1004,3 hPa 0,0 l/m 0,0 km/h (0 Bft) S-SO 157 0 min 0,000 mm 0 W/m 8,6 C 10,2 C 1,6 km/h (1 Bft) 100 %
16.04.2016 21:30 10,1 C 10,1 C 10,2 C 90 % 1004,2 hPa 0,0 l/m 0,0 km/h (0 Bft) N 0 0 min 0,000 mm 0 W/m 8,5 C 10,1 C 0,0 km/h (0 Bft) 100 %
16.04.2016 21:40 10,0 C 10,0 C 10,1 C 91 % 1004,0 hPa 0,0 l/m 0,0 km/h (0 Bft) N 0 0 min 0,000 mm 0 W/m 8,6 C 10,0 C 0,0 km/h (0 Bft) 100 %
16.04.2016 21:50 9,9 C 9,9 C 10,0 C 91 % 1003,8 hPa 0,0 l/m 0,0 km/h (0 Bft) N 0 0 min 0,000 mm 0 W/m 8,5 C 9,9 C 0,0 km/h (0 Bft) 100 %
16.04.2016 22:00 9,8 C 9,8 C 9,9 C 91 % 1003,6 hPa 0,0 l/m 0,0 km/h (0 Bft) N 0 0 min 0,000 mm 0 W/m 8,4 C 9,8 C 0,0 km/h (0 Bft) 100 %
16.04.2016 22:10 9,7 C 9,7 C 9,8 C 91 % 1003,5 hPa 0,0 l/m 0,0 km/h (0 Bft) N 0 0 min 0,000 mm 0 W/m 8,3 C 9,7 C 0,0 km/h (0 Bft) 100 %
16.04.2016 22:20 9,5 C 9,5 C 9,7 C 91 % 1003,5 hPa 0,0 l/m 0,0 km/h (0 Bft) N 0 0 min 0,000 mm 0 W/m 8,1 C 9,5 C 0,0 km/h (0 Bft) 100 %
16.04.2016 22:30 9,4 C 9,4 C 9,6 C 91 % 1003,3 hPa 0,0 l/m 0,0 km/h (0 Bft) N 0 0 min 0,000 mm 0 W/m 8,0 C 9,4 C 0,0 km/h (0 Bft) 100 %
16.04.2016 22:40 9,3 C 9,3 C 9,4 C 91 % 1003,3 hPa 0,0 l/m 0,0 km/h (0 Bft) SO 135 0 min 0,000 mm 0 W/m 7,9 C 9,3 C 3,2 km/h (1 Bft) 100 %
16.04.2016 22:50 9,3 C 9,2 C 9,3 C 91 % 1003,1 hPa 0,0 l/m 0,0 km/h (0 Bft) SO 135 0 min 0,000 mm 0 W/m 7,9 C 9,3 C 3,2 km/h (1 Bft) 100 %
16.04.2016 23:00 9,2 C 9,2 C 9,3 C 91 % 1003,6 hPa 0,0 l/m 0,0 km/h (0 Bft) S 180 0 min 0,000 mm 0 W/m 7,8 C 9,2 C 4,8 km/h (1 Bft) 100 %
16.04.2016 23:10 9,4 C 9,2 C 9,4 C 91 % 1003,1 hPa 0,0 l/m 1,6 km/h (1 Bft) S-SO 157 0 min 0,000 mm 0 W/m 8,0 C 9,4 C 4,8 km/h (1 Bft) 100 %
16.04.2016 23:20 9,6 C 9,4 C 9,6 C 91 % 1002,9 hPa 0,0 l/m 1,6 km/h (1 Bft) SO 135 0 min 0,000 mm 0 W/m 8,2 C 9,6 C 6,4 km/h (2 Bft) 100 %
16.04.2016 23:30 9,9 C 9,6 C 9,9 C 91 % 1003,1 hPa 0,0 l/m 0,0 km/h (0 Bft) SO 135 0 min 0,000 mm 0 W/m 8,5 C 9,9 C 3,2 km/h (1 Bft) 100 %
16.04.2016 23:40 9,7 C 9,7 C 9,9 C 91 % 1003,0 hPa 0,0 l/m 0,0 km/h (0 Bft) SO 135 0 min 0,000 mm 0 W/m 8,3 C 9,7 C 3,2 km/h (1 Bft) 100 %
16.04.2016 23:50 9,6 C 9,6 C 9,7 C 91 % 1003,3 hPa 0,0 l/m 3,2 km/h (1 Bft) S-SO 157 0 min 0,000 mm 0 W/m 8,2 C 9,6 C 8,0 km/h (2 Bft) 100 %
_ Min-Zeit 13:50 13:50 13:50 01:30 06:10 - 06:30 - - - - - 13:50 15:00 06:30 04:00
Minimum _ 8,2 C 8,2 C 8,3 C 79 % 1001,9 hPa - 0,0 km/h (0 Bft) - - - - - 6,8 C 6,2 C 0,0 km/h (0 Bft) 89 %
_ Max-Zeit 16:30 17:30 16:30 05:50 15:20 13:30 17:10 - - 10:10 15:00 14:10 16:30 17:30 17:10 07:30
Maximum _ 11,7 C 11,7 C 11,7 C 91 % 1006,0 hPa 1,2 l/m 15,8 km/h
SW (3 Bft)
- - 10 min 0,178 mm 710 W/m 9,6 C 11,7 C 27,4 km/h
S-SW (4 Bft)
100 %
Durchschnitt _ 10,1 C 10,1 C 10,2 C 88 % 1004,1 hPa #9,6 l/m 4,4 km/h (1 Bft) S - #4:00 h #0,787 mm 163 W/m 8,3 C 9,7 C 12,6 km/h (3 Bft) 99 %
PRIVATE WETTERSTATION BILLIGHEIM-ALLFELD - www.neckar-odenwald-wetter.de - Holger Sonntag